Location: Boone Canyon
(38.3180°N, 119.2504°W)
Time: 18:06:46
(UTC+00:00)

CZ-4B R/B - Pass Details

Date: 18 September 2020
Orbit: 391 x 461 km, 97.6° (Epoch: 19 October)

Event Time Altitude Azimuth Distance (km) Brightness Sun altitude
Rises 13:08:11 0° 192° (SSW) 2,292 4.8 -7.4°
Reaches altitude 10° 13:10:22 10° 208° (SSW) 1,449 3.6 -7.0°
Maximum altitude 13:12:55 23° 263° (W) 905 2.3 -6.5°
Drops below altitude 10° 13:15:33 10° 319° (NW) 1,486 3.7 -6.0°
Sets 13:17:50 0° 334° (NNW) 2,369 4.9 -5.5°
